Year,Month,Day,Hour,Minute,Value (Times are PST for temperature in C)
2013,07,26,00,00,21.80
2013,07,26,00,01,21.70
2013,07,26,00,02,21.70
2013,07,26,00,03,21.70
2013,07,26,00,04,21.70
2013,07,26,00,05,21.70
2013,07,26,00,06,21.60
2013,07,26,00,07,21.60
2013,07,26,00,08,21.60
2013,07,26,00,09,21.60
2013,07,26,00,10,21.50
2013,07,26,00,11,21.50
2013,07,26,00,12,21.50
2013,07,26,00,13,21.40
2013,07,26,00,14,21.40
2013,07,26,00,15,21.40
2013,07,26,00,16,21.30
2013,07,26,00,17,21.30
2013,07,26,00,18,21.30
2013,07,26,00,19,21.30
2013,07,26,00,20,21.30
2013,07,26,00,21,21.30
2013,07,26,00,22,21.20
2013,07,26,00,23,21.20
2013,07,26,00,24,21.20
2013,07,26,00,25,21.20
2013,07,26,00,26,21.20
2013,07,26,00,27,21.20
2013,07,26,00,28,21.20
2013,07,26,00,29,21.10
2013,07,26,00,30,21.10
2013,07,26,00,31,21.10
2013,07,26,00,32,21.10
2013,07,26,00,33,21.00
2013,07,26,00,34,21.00
2013,07,26,00,35,21.00
2013,07,26,00,36,20.90
2013,07,26,00,37,20.90
2013,07,26,00,38,20.90
2013,07,26,00,39,20.90
2013,07,26,00,40,20.80
2013,07,26,00,41,20.80
2013,07,26,00,42,20.80
2013,07,26,00,43,20.80
2013,07,26,00,44,20.70
2013,07,26,00,45,20.70
2013,07,26,00,46,20.70
2013,07,26,00,47,20.60
2013,07,26,00,48,20.60
2013,07,26,00,49,20.60
2013,07,26,00,50,20.60
2013,07,26,00,51,20.50
2013,07,26,00,52,20.50
2013,07,26,00,53,20.50
2013,07,26,00,54,20.40
2013,07,26,00,55,20.40
2013,07,26,00,56,20.40
2013,07,26,00,57,20.40
2013,07,26,00,58,20.40
2013,07,26,00,59,20.30
2013,07,26,01,00,20.30
2013,07,26,01,01,20.30
2013,07,26,01,02,20.30
2013,07,26,01,03,20.30
2013,07,26,01,04,20.30
2013,07,26,01,05,20.30
2013,07,26,01,06,20.30
2013,07,26,01,07,20.20
2013,07,26,01,08,20.20
2013,07,26,01,09,20.20
2013,07,26,01,10,20.20
2013,07,26,01,11,20.20
2013,07,26,01,12,20.20
2013,07,26,01,13,20.20
2013,07,26,01,14,20.20
2013,07,26,01,15,20.20
2013,07,26,01,16,20.10
2013,07,26,01,17,20.10
2013,07,26,01,18,20.10
2013,07,26,01,19,20.10
2013,07,26,01,20,20.10
2013,07,26,01,21,20.10
2013,07,26,01,22,20.10
2013,07,26,01,23,20.10
2013,07,26,01,24,20.10
2013,07,26,01,25,20.00
2013,07,26,01,26,20.00
2013,07,26,01,27,20.00
2013,07,26,01,28,20.00
2013,07,26,01,29,19.90
2013,07,26,01,30,19.90
2013,07,26,01,31,19.90
2013,07,26,01,32,19.90
2013,07,26,01,33,19.90
2013,07,26,01,34,19.80
2013,07,26,01,35,19.80
2013,07,26,01,36,19.80
2013,07,26,01,37,19.80
2013,07,26,01,38,19.70
2013,07,26,01,39,19.70
2013,07,26,01,40,19.70
2013,07,26,01,41,19.70
2013,07,26,01,42,19.70
2013,07,26,01,43,19.60
2013,07,26,01,44,19.60
2013,07,26,01,45,19.60
2013,07,26,01,46,19.60
2013,07,26,01,47,19.60
2013,07,26,01,48,19.50
2013,07,26,01,49,19.50
2013,07,26,01,50,19.50
2013,07,26,01,51,19.50
2013,07,26,01,52,19.40
2013,07,26,01,53,19.40
2013,07,26,01,54,19.40
2013,07,26,01,55,19.40
2013,07,26,01,56,19.40
2013,07,26,01,57,19.40
2013,07,26,01,58,19.40
2013,07,26,01,59,19.40
2013,07,26,02,00,19.40
2013,07,26,02,01,19.30
2013,07,26,02,02,19.30
2013,07,26,02,03,19.30
2013,07,26,02,04,19.30
2013,07,26,02,05,19.30
2013,07,26,02,06,19.30
2013,07,26,02,07,19.20
2013,07,26,02,08,19.20
2013,07,26,02,09,19.20
2013,07,26,02,10,19.20
2013,07,26,02,11,19.20
2013,07,26,02,12,19.10
2013,07,26,02,13,19.10
2013,07,26,02,14,19.10
2013,07,26,02,15,19.10
2013,07,26,02,16,19.10
2013,07,26,02,17,19.10
2013,07,26,02,18,19.00
2013,07,26,02,19,19.00
2013,07,26,02,20,19.00
2013,07,26,02,21,18.90
2013,07,26,02,22,18.90
2013,07,26,02,23,18.90
2013,07,26,02,24,18.90
2013,07,26,02,25,18.90
2013,07,26,02,26,18.90
2013,07,26,02,27,18.90
2013,07,26,02,28,18.90
2013,07,26,02,29,18.90
2013,07,26,02,30,18.90
2013,07,26,02,31,18.80
2013,07,26,02,32,18.80
2013,07,26,02,33,18.80
2013,07,26,02,34,18.80
2013,07,26,02,35,18.80
2013,07,26,02,36,18.80
2013,07,26,02,37,18.80
2013,07,26,02,38,18.80
2013,07,26,02,39,18.80
2013,07,26,02,40,18.80
2013,07,26,02,41,18.80
2013,07,26,02,42,18.80
2013,07,26,02,43,18.80
2013,07,26,02,44,18.80
2013,07,26,02,45,18.80
2013,07,26,02,46,18.80
2013,07,26,02,47,18.80
2013,07,26,02,48,18.70
2013,07,26,02,49,18.70
2013,07,26,02,50,18.70
2013,07,26,02,51,18.70
2013,07,26,02,52,18.70
2013,07,26,02,53,18.70
2013,07,26,02,54,18.70
2013,07,26,02,55,18.70
2013,07,26,02,56,18.60
2013,07,26,02,57,18.60
2013,07,26,02,58,18.60
2013,07,26,02,59,18.60
2013,07,26,03,00,18.60
2013,07,26,03,01,18.60
2013,07,26,03,02,18.60
2013,07,26,03,03,18.60
2013,07,26,03,04,18.60
2013,07,26,03,05,18.60
2013,07,26,03,06,18.60
2013,07,26,03,07,18.60
2013,07,26,03,08,18.50
2013,07,26,03,09,18.60
2013,07,26,03,10,18.50
2013,07,26,03,11,18.60
2013,07,26,03,12,18.50
2013,07,26,03,13,18.50
2013,07,26,03,14,18.50
2013,07,26,03,15,18.50
2013,07,26,03,16,18.50
2013,07,26,03,17,18.50
2013,07,26,03,18,18.50
2013,07,26,03,19,18.50
2013,07,26,03,20,18.50
2013,07,26,03,21,18.50
2013,07,26,03,22,18.40
2013,07,26,03,23,18.40
2013,07,26,03,24,18.40
2013,07,26,03,25,18.40
2013,07,26,03,26,18.40
2013,07,26,03,27,18.40
2013,07,26,03,28,18.40
2013,07,26,03,29,18.30
2013,07,26,03,30,18.30
2013,07,26,03,31,18.30
2013,07,26,03,32,18.30
2013,07,26,03,33,18.30
2013,07,26,03,34,18.30
2013,07,26,03,35,18.30
2013,07,26,03,36,18.30
2013,07,26,03,37,18.30
2013,07,26,03,38,18.30
2013,07,26,03,39,18.30
2013,07,26,03,40,18.30
2013,07,26,03,41,18.30
2013,07,26,03,42,18.30
2013,07,26,03,43,18.30
2013,07,26,03,44,18.30
2013,07,26,03,45,18.30
2013,07,26,03,46,18.30
2013,07,26,03,47,18.30
2013,07,26,03,48,18.30
2013,07,26,03,49,18.30
2013,07,26,03,50,18.30
2013,07,26,03,51,18.20
2013,07,26,03,52,18.20
2013,07,26,03,53,18.20
2013,07,26,03,54,18.20
2013,07,26,03,55,18.20
2013,07,26,03,56,18.20
2013,07,26,03,57,18.20
2013,07,26,03,58,18.20
2013,07,26,03,59,18.20
2013,07,26,04,00,18.20
2013,07,26,04,01,18.20
2013,07,26,04,02,18.20
2013,07,26,04,03,18.20
2013,07,26,04,04,18.20
2013,07,26,04,05,18.20
2013,07,26,04,06,18.20
2013,07,26,04,07,18.20
2013,07,26,04,08,18.20
2013,07,26,04,09,18.20
2013,07,26,04,10,18.10
2013,07,26,04,11,18.10
2013,07,26,04,12,18.10
2013,07,26,04,13,18.10
2013,07,26,04,14,18.10
2013,07,26,04,15,18.10
2013,07,26,04,16,18.10
2013,07,26,04,17,18.10
2013,07,26,04,18,18.10
2013,07,26,04,19,18.10
2013,07,26,04,20,18.00
2013,07,26,04,21,18.00
2013,07,26,04,22,18.00
2013,07,26,04,23,18.00
2013,07,26,04,24,18.00
2013,07,26,04,25,17.90
2013,07,26,04,26,17.90
2013,07,26,04,27,17.90
2013,07,26,04,28,17.90
2013,07,26,04,29,17.80
2013,07,26,04,30,17.80
2013,07,26,04,31,17.80
2013,07,26,04,32,17.80
2013,07,26,04,33,17.80
2013,07,26,04,34,17.80
2013,07,26,04,35,17.80
2013,07,26,04,36,17.80
2013,07,26,04,37,17.70
2013,07,26,04,38,17.70
2013,07,26,04,39,17.70
2013,07,26,04,40,17.70
2013,07,26,04,41,17.70
2013,07,26,04,42,17.70
2013,07,26,04,43,17.70
2013,07,26,04,44,17.70
2013,07,26,04,45,17.70
2013,07,26,04,46,17.70
2013,07,26,04,47,17.70
2013,07,26,04,48,17.70
2013,07,26,04,49,17.70
2013,07,26,04,50,17.70
2013,07,26,04,51,17.70
2013,07,26,04,52,17.70
2013,07,26,04,53,17.70
2013,07,26,04,54,17.70
2013,07,26,04,55,17.70
2013,07,26,04,56,17.70
2013,07,26,04,57,17.70
2013,07,26,04,58,17.60
2013,07,26,04,59,17.60
2013,07,26,05,00,17.60
2013,07,26,05,01,17.60
2013,07,26,05,02,17.60
2013,07,26,05,03,17.50
2013,07,26,05,04,17.50
2013,07,26,05,05,17.50
2013,07,26,05,06,17.50
2013,07,26,05,07,17.50
2013,07,26,05,08,17.50
2013,07,26,05,09,17.40
2013,07,26,05,10,17.40
2013,07,26,05,11,17.40
2013,07,26,05,12,17.50
2013,07,26,05,13,17.50
2013,07,26,05,14,17.40
2013,07,26,05,15,17.40
2013,07,26,05,16,17.50
2013,07,26,05,17,17.50
2013,07,26,05,18,17.50
2013,07,26,05,19,17.50
2013,07,26,05,20,17.50
2013,07,26,05,21,17.50
2013,07,26,05,22,17.50
2013,07,26,05,23,17.50
2013,07,26,05,24,17.40
2013,07,26,05,25,17.40
2013,07,26,05,26,17.40
2013,07,26,05,27,17.30
2013,07,26,05,28,17.30
2013,07,26,05,29,17.30
2013,07,26,05,30,17.30
2013,07,26,05,31,17.30
2013,07,26,05,32,17.20
2013,07,26,05,33,17.20
2013,07,26,05,34,17.20
2013,07,26,05,35,17.20
2013,07,26,05,36,17.20
2013,07,26,05,37,17.20
2013,07,26,05,38,17.20
2013,07,26,05,39,17.20
2013,07,26,05,40,17.30
2013,07,26,05,41,17.30
2013,07,26,05,42,17.30
2013,07,26,05,43,17.30
2013,07,26,05,44,17.30
2013,07,26,05,45,17.30
2013,07,26,05,46,17.30
2013,07,26,05,47,17.30
2013,07,26,05,48,17.20
2013,07,26,05,49,17.20
2013,07,26,05,50,17.20
2013,07,26,05,51,17.30
2013,07,26,05,52,17.20
2013,07,26,05,53,17.20
2013,07,26,05,54,17.20
2013,07,26,05,55,17.20
2013,07,26,05,56,17.20
2013,07,26,05,57,17.30
2013,07,26,05,58,17.20
2013,07,26,05,59,17.20
2013,07,26,06,00,17.20
2013,07,26,06,01,17.20
2013,07,26,06,02,17.20
2013,07,26,06,03,17.20
2013,07,26,06,04,17.20
2013,07,26,06,05,17.20
2013,07,26,06,06,17.20
2013,07,26,06,07,17.20
2013,07,26,06,08,17.20
2013,07,26,06,09,17.20
2013,07,26,06,10,17.20
2013,07,26,06,11,17.20
2013,07,26,06,12,17.20
2013,07,26,06,13,17.20
2013,07,26,06,14,17.20
2013,07,26,06,15,17.10
2013,07,26,06,16,17.10
2013,07,26,06,17,17.10
2013,07,26,06,18,17.10
2013,07,26,06,19,17.10
2013,07,26,06,20,17.10
2013,07,26,06,21,17.10
2013,07,26,06,22,17.10
2013,07,26,06,23,17.10
2013,07,26,06,24,17.10
2013,07,26,06,25,17.10
2013,07,26,06,26,17.00
2013,07,26,06,27,17.00
2013,07,26,06,28,17.00
2013,07,26,06,29,17.00
2013,07,26,06,30,17.00
2013,07,26,06,31,17.00
2013,07,26,06,32,17.00
2013,07,26,06,33,17.00
2013,07,26,06,34,17.00
2013,07,26,06,35,17.00
2013,07,26,06,36,17.00
2013,07,26,06,37,17.00
2013,07,26,06,38,17.00
2013,07,26,06,39,17.00
2013,07,26,06,40,17.00
2013,07,26,06,41,17.00
2013,07,26,06,42,17.00
2013,07,26,06,43,17.00
2013,07,26,06,44,17.00
2013,07,26,06,45,17.00
2013,07,26,06,46,17.00
2013,07,26,06,47,17.10
2013,07,26,06,48,17.10
2013,07,26,06,49,17.10
2013,07,26,06,50,17.10
2013,07,26,06,51,17.10
2013,07,26,06,52,17.10
2013,07,26,06,53,17.10
2013,07,26,06,54,17.20
2013,07,26,06,55,17.20
2013,07,26,06,56,17.20
2013,07,26,06,57,17.20
2013,07,26,06,58,17.20
2013,07,26,06,59,17.20
2013,07,26,07,00,17.30
2013,07,26,07,01,17.30
2013,07,26,07,02,17.30
2013,07,26,07,03,17.30
2013,07,26,07,04,17.30
2013,07,26,07,05,17.30
2013,07,26,07,06,17.30
2013,07,26,07,07,17.30
2013,07,26,07,08,17.30
2013,07,26,07,09,17.30
2013,07,26,07,10,17.30
2013,07,26,07,11,17.30
2013,07,26,07,12,17.30
2013,07,26,07,13,17.30
2013,07,26,07,14,17.40
2013,07,26,07,15,17.40
2013,07,26,07,16,17.40
2013,07,26,07,17,17.40
2013,07,26,07,18,17.40
2013,07,26,07,19,17.40
2013,07,26,07,20,17.40
2013,07,26,07,21,17.40
2013,07,26,07,22,17.40
2013,07,26,07,23,17.40
2013,07,26,07,24,17.40
2013,07,26,07,25,17.40
2013,07,26,07,26,17.40
2013,07,26,07,27,17.40
2013,07,26,07,28,17.40
2013,07,26,07,29,17.40
2013,07,26,07,30,17.50
2013,07,26,07,31,17.50
2013,07,26,07,32,17.50
2013,07,26,07,33,17.60
2013,07,26,07,34,17.60
2013,07,26,07,35,17.60
2013,07,26,07,36,17.60
2013,07,26,07,37,17.60
2013,07,26,07,38,17.70
2013,07,26,07,39,17.70
2013,07,26,07,40,17.70
2013,07,26,07,41,17.70
2013,07,26,07,42,17.70
2013,07,26,07,43,17.60
2013,07,26,07,44,17.60
2013,07,26,07,45,17.60
2013,07,26,07,46,17.60
2013,07,26,07,47,17.60
2013,07,26,07,48,17.60
2013,07,26,07,49,17.60
2013,07,26,07,50,17.60
2013,07,26,07,51,17.60
2013,07,26,07,52,17.70
2013,07,26,07,53,17.70
2013,07,26,07,54,17.70
2013,07,26,07,55,17.70
2013,07,26,07,56,17.60
2013,07,26,07,57,17.60
2013,07,26,07,58,17.60
2013,07,26,07,59,17.60
2013,07,26,08,00,17.60
2013,07,26,08,01,17.60
2013,07,26,08,02,17.60
2013,07,26,08,03,17.60
2013,07,26,08,04,17.60
2013,07,26,08,05,17.70
2013,07,26,08,06,17.70
2013,07,26,08,07,17.70
2013,07,26,08,08,17.80
2013,07,26,08,09,17.80
2013,07,26,08,10,17.80
2013,07,26,08,11,17.90
2013,07,26,08,12,17.90
2013,07,26,08,13,17.90
2013,07,26,08,14,17.90
2013,07,26,08,15,18.00
2013,07,26,08,16,18.00
2013,07,26,08,17,18.00
2013,07,26,08,18,18.10
2013,07,26,08,19,18.00
2013,07,26,08,20,18.10
2013,07,26,08,21,18.00
2013,07,26,08,22,18.10
2013,07,26,08,23,18.10
2013,07,26,08,24,18.10
2013,07,26,08,25,18.10
2013,07,26,08,26,18.10
2013,07,26,08,27,18.10
2013,07,26,08,28,18.10
2013,07,26,08,29,18.10
2013,07,26,08,30,18.10
2013,07,26,08,31,18.20
2013,07,26,08,32,18.20
2013,07,26,08,33,18.20
2013,07,26,08,34,18.20
2013,07,26,08,35,18.20
2013,07,26,08,36,18.20
2013,07,26,08,37,18.30
2013,07,26,08,38,18.30
2013,07,26,08,39,18.30
2013,07,26,08,40,18.30
2013,07,26,08,41,18.30
2013,07,26,08,42,18.30
2013,07,26,08,43,18.30
2013,07,26,08,44,18.30
2013,07,26,08,45,18.40
2013,07,26,08,46,18.40
2013,07,26,08,47,18.40
2013,07,26,08,48,18.40
2013,07,26,08,49,18.40
2013,07,26,08,50,18.30
2013,07,26,08,51,18.30
2013,07,26,08,52,18.30
2013,07,26,08,53,18.30
2013,07,26,08,54,18.30
2013,07,26,08,55,18.20
2013,07,26,08,56,18.20
2013,07,26,08,57,18.20
2013,07,26,08,58,18.20
2013,07,26,08,59,18.20
2013,07,26,09,00,18.20
2013,07,26,09,01,18.20
2013,07,26,09,02,18.20
2013,07,26,09,03,18.20
2013,07,26,09,04,18.20
2013,07,26,09,05,18.20
2013,07,26,09,06,18.20
2013,07,26,09,07,18.30
2013,07,26,09,08,18.40
2013,07,26,09,09,18.40
2013,07,26,09,10,18.50
2013,07,26,09,11,18.50
2013,07,26,09,12,18.60
2013,07,26,09,13,18.60
2013,07,26,09,14,18.60
2013,07,26,09,15,18.60
2013,07,26,09,16,18.70
2013,07,26,09,17,18.70
2013,07,26,09,18,18.70
2013,07,26,09,19,18.70
2013,07,26,09,20,18.70
2013,07,26,09,21,18.70
2013,07,26,09,22,18.80
2013,07,26,09,23,18.80
2013,07,26,09,24,18.80
2013,07,26,09,25,18.80
2013,07,26,09,26,18.80
2013,07,26,09,27,18.80
2013,07,26,09,28,18.70
2013,07,26,09,29,18.60
2013,07,26,09,30,18.60
2013,07,26,09,31,18.50
2013,07,26,09,32,18.50
2013,07,26,09,33,18.60
2013,07,26,09,34,18.60
2013,07,26,09,35,18.60
2013,07,26,09,36,18.60
2013,07,26,09,37,18.60
2013,07,26,09,38,18.60
2013,07,26,09,39,18.60
2013,07,26,09,40,18.60
2013,07,26,09,41,18.60
2013,07,26,09,42,18.70
2013,07,26,09,43,18.70
2013,07,26,09,44,18.70
2013,07,26,09,45,18.70
2013,07,26,09,46,18.60
2013,07,26,09,47,18.60
2013,07,26,09,48,18.60
2013,07,26,09,49,18.60
2013,07,26,09,50,18.60
2013,07,26,09,51,18.60
2013,07,26,09,52,18.60
2013,07,26,09,53,18.70
2013,07,26,09,54,18.70
2013,07,26,09,55,18.70
2013,07,26,09,56,18.70
2013,07,26,09,57,18.70
2013,07,26,09,58,18.80
2013,07,26,09,59,18.80
2013,07,26,10,00,18.80
2013,07,26,10,01,18.90
2013,07,26,10,02,18.90
2013,07,26,10,03,18.90
2013,07,26,10,04,18.90
2013,07,26,10,05,19.00
2013,07,26,10,06,19.00
2013,07,26,10,07,19.00
2013,07,26,10,08,19.00
2013,07,26,10,09,19.00
2013,07,26,10,10,19.00
2013,07,26,10,11,19.00
2013,07,26,10,12,19.10
2013,07,26,10,13,19.10
2013,07,26,10,14,19.10
2013,07,26,10,15,19.10
2013,07,26,10,16,19.10
2013,07,26,10,17,19.10
2013,07,26,10,18,19.20
2013,07,26,10,19,19.20
2013,07,26,10,20,19.30
2013,07,26,10,21,19.30
2013,07,26,10,22,19.30
2013,07,26,10,23,19.30
2013,07,26,10,24,19.40
2013,07,26,10,25,19.50
2013,07,26,10,26,19.50
2013,07,26,10,27,19.50
2013,07,26,10,28,19.50
2013,07,26,10,29,19.50
2013,07,26,10,30,19.50
2013,07,26,10,31,19.60
2013,07,26,10,32,19.60
2013,07,26,10,33,19.70
2013,07,26,10,34,19.70
2013,07,26,10,35,19.70
2013,07,26,10,36,19.80
2013,07,26,10,37,19.80
2013,07,26,10,38,19.90
2013,07,26,10,39,19.90
2013,07,26,10,40,19.90
2013,07,26,10,41,20.00
2013,07,26,10,42,20.00
2013,07,26,10,43,20.10
2013,07,26,10,44,20.00
2013,07,26,10,45,20.00
2013,07,26,10,46,20.00
2013,07,26,10,47,20.00
2013,07,26,10,48,20.00
2013,07,26,10,49,19.90
2013,07,26,10,50,19.90
2013,07,26,10,51,19.90
2013,07,26,10,52,19.90
2013,07,26,10,53,19.90
2013,07,26,10,54,19.90
2013,07,26,10,55,19.90
2013,07,26,10,56,20.00
2013,07,26,10,57,20.00
2013,07,26,10,58,20.00
2013,07,26,10,59,20.10
2013,07,26,11,00,20.10
2013,07,26,11,01,20.10
2013,07,26,11,02,20.20
2013,07,26,11,03,20.30
2013,07,26,11,04,20.30
2013,07,26,11,05,20.40
2013,07,26,11,06,20.40
2013,07,26,11,07,20.40
2013,07,26,11,08,20.40
2013,07,26,11,09,20.40
2013,07,26,11,10,20.50
2013,07,26,11,11,20.60
2013,07,26,11,12,20.70
2013,07,26,11,13,20.70
2013,07,26,11,14,20.80
2013,07,26,11,15,20.70
2013,07,26,11,16,20.70
2013,07,26,11,17,20.60
2013,07,26,11,18,20.60
2013,07,26,11,19,20.50
2013,07,26,11,20,20.40
2013,07,26,11,21,20.30
2013,07,26,11,22,20.30
2013,07,26,11,23,20.20
2013,07,26,11,24,20.20
2013,07,26,11,25,20.10
2013,07,26,11,26,20.10
2013,07,26,11,27,20.10
2013,07,26,11,28,20.00
2013,07,26,11,29,20.00
2013,07,26,11,30,20.10
2013,07,26,11,31,20.10
2013,07,26,11,32,20.10
2013,07,26,11,33,20.10
2013,07,26,11,34,20.20
2013,07,26,11,35,20.20
2013,07,26,11,36,20.30
2013,07,26,11,37,20.30
2013,07,26,11,38,20.30
2013,07,26,11,39,20.30
2013,07,26,11,40,20.20
2013,07,26,11,41,20.20
2013,07,26,11,42,20.20
2013,07,26,11,43,20.20
2013,07,26,11,44,20.20
2013,07,26,11,45,20.20
2013,07,26,11,46,20.20
2013,07,26,11,47,20.20
2013,07,26,11,48,20.30
2013,07,26,11,49,20.30
2013,07,26,11,50,20.40
2013,07,26,11,51,20.40
2013,07,26,11,52,20.40
2013,07,26,11,53,20.40
2013,07,26,11,54,20.40
2013,07,26,11,55,20.30
2013,07,26,11,56,20.30
2013,07,26,11,57,20.30
2013,07,26,11,58,20.40
2013,07,26,11,59,20.40
2013,07,26,12,00,20.40
2013,07,26,12,01,20.40
2013,07,26,12,02,20.40
2013,07,26,12,03,20.30
2013,07,26,12,04,20.30
2013,07,26,12,05,20.30
2013,07,26,12,06,20.30
2013,07,26,12,07,20.30
2013,07,26,12,08,20.40
2013,07,26,12,09,20.40
2013,07,26,12,10,20.40
2013,07,26,12,11,20.30
2013,07,26,12,12,20.30
2013,07,26,12,13,20.30
2013,07,26,12,14,20.40
2013,07,26,12,15,20.30
2013,07,26,12,16,20.30
2013,07,26,12,17,20.40
2013,07,26,12,18,20.40
2013,07,26,12,19,20.40
2013,07,26,12,20,20.50
2013,07,26,12,21,20.50
2013,07,26,12,22,20.60
2013,07,26,12,23,20.60
2013,07,26,12,24,20.70
2013,07,26,12,25,20.80
2013,07,26,12,26,20.80
2013,07,26,12,27,20.80
2013,07,26,12,28,20.80
2013,07,26,12,29,20.70
2013,07,26,12,30,20.70
2013,07,26,12,31,20.70
2013,07,26,12,32,20.60
2013,07,26,12,33,20.50
2013,07,26,12,34,20.50
2013,07,26,12,35,20.40
2013,07,26,12,36,20.40
2013,07,26,12,37,20.40
2013,07,26,12,38,20.50
2013,07,26,12,39,20.60
2013,07,26,12,40,20.60
2013,07,26,12,41,20.60
2013,07,26,12,42,20.60
2013,07,26,12,43,20.70
2013,07,26,12,44,20.80
2013,07,26,12,45,20.90
2013,07,26,12,46,21.00
2013,07,26,12,47,21.10
2013,07,26,12,48,21.10
2013,07,26,12,49,21.00
2013,07,26,12,50,21.00
2013,07,26,12,51,21.00
2013,07,26,12,52,21.00
2013,07,26,12,53,20.90
2013,07,26,12,54,20.90
2013,07,26,12,55,20.90
2013,07,26,12,56,21.00
2013,07,26,12,57,21.00
2013,07,26,12,58,21.10
2013,07,26,12,59,21.20
2013,07,26,13,00,21.20
2013,07,26,13,01,21.20
2013,07,26,13,02,21.20
2013,07,26,13,03,21.10
2013,07,26,13,04,21.10
2013,07,26,13,05,21.10
2013,07,26,13,06,21.10
2013,07,26,13,07,21.10
2013,07,26,13,08,21.20
2013,07,26,13,09,21.20
2013,07,26,13,10,21.20
2013,07,26,13,11,21.20
2013,07,26,13,12,21.20
2013,07,26,13,13,21.20
2013,07,26,13,14,21.20
2013,07,26,13,15,21.20
2013,07,26,13,16,21.20
2013,07,26,13,17,21.10
2013,07,26,13,18,21.10
2013,07,26,13,19,21.20
2013,07,26,13,20,21.20
2013,07,26,13,21,21.20
2013,07,26,13,22,21.30
2013,07,26,13,23,21.40
2013,07,26,13,24,21.40
2013,07,26,13,25,21.40
2013,07,26,13,26,21.40
2013,07,26,13,27,21.40
2013,07,26,13,28,21.40
2013,07,26,13,29,21.40
2013,07,26,13,30,21.40
2013,07,26,13,31,21.50
2013,07,26,13,32,21.50
2013,07,26,13,33,21.70
2013,07,26,13,34,21.70
2013,07,26,13,35,21.80
2013,07,26,13,36,21.80
2013,07,26,13,37,21.80
2013,07,26,13,38,21.80
2013,07,26,13,39,21.80
2013,07,26,13,40,21.80
2013,07,26,13,41,21.80
2013,07,26,13,42,21.80
2013,07,26,13,43,21.80
2013,07,26,13,44,21.80
2013,07,26,13,45,21.70
2013,07,26,13,46,21.70
2013,07,26,13,47,21.70
2013,07,26,13,48,21.80
2013,07,26,13,49,21.90
2013,07,26,13,50,21.90
2013,07,26,13,51,22.00
2013,07,26,13,52,22.00
2013,07,26,13,53,21.90
2013,07,26,13,54,21.90
2013,07,26,13,55,21.90
2013,07,26,13,56,21.90
2013,07,26,13,57,21.90
2013,07,26,13,58,21.90
2013,07,26,13,59,21.90
2013,07,26,14,00,21.90
2013,07,26,14,01,21.90
2013,07,26,14,02,22.00
2013,07,26,14,03,22.00
2013,07,26,14,04,22.10
2013,07,26,14,05,22.10
2013,07,26,14,06,22.10
2013,07,26,14,07,22.10
2013,07,26,14,08,22.20
2013,07,26,14,09,22.10
2013,07,26,14,10,22.10
2013,07,26,14,11,22.00
2013,07,26,14,12,22.00
2013,07,26,14,13,22.00
2013,07,26,14,14,22.00
2013,07,26,14,15,22.10
2013,07,26,14,16,22.10
2013,07,26,14,17,22.20
2013,07,26,14,18,22.20
2013,07,26,14,19,22.20
2013,07,26,14,20,22.20
2013,07,26,14,21,22.30
2013,07,26,14,22,22.30
2013,07,26,14,23,22.30
2013,07,26,14,24,22.30
2013,07,26,14,25,22.40
2013,07,26,14,26,22.40
2013,07,26,14,27,22.40
2013,07,26,14,28,22.40
2013,07,26,14,29,22.40
2013,07,26,14,30,22.30
2013,07,26,14,31,22.30
2013,07,26,14,32,22.30
2013,07,26,14,33,22.30
2013,07,26,14,34,22.40
2013,07,26,14,35,22.50
2013,07,26,14,36,22.60
2013,07,26,14,37,22.60
2013,07,26,14,38,22.60
2013,07,26,14,39,22.70
2013,07,26,14,40,22.70
2013,07,26,14,41,22.70
2013,07,26,14,42,22.70
2013,07,26,14,43,22.80
2013,07,26,14,44,22.90
2013,07,26,14,45,22.90
2013,07,26,14,46,22.90
2013,07,26,14,47,22.90
2013,07,26,14,48,22.90
2013,07,26,14,49,22.90
2013,07,26,14,50,22.80
2013,07,26,14,51,22.70
2013,07,26,14,52,22.70
2013,07,26,14,53,22.70
2013,07,26,14,54,22.70
2013,07,26,14,55,22.70
2013,07,26,14,56,22.70
2013,07,26,14,57,22.70
2013,07,26,14,58,22.80
2013,07,26,14,59,22.80
2013,07,26,15,00,22.80
2013,07,26,15,01,22.90
2013,07,26,15,02,22.90
2013,07,26,15,03,23.00
2013,07,26,15,04,23.00
2013,07,26,15,05,23.00
2013,07,26,15,06,23.10
2013,07,26,15,07,23.10
2013,07,26,15,08,23.20
2013,07,26,15,09,23.30
2013,07,26,15,10,23.40
2013,07,26,15,11,23.40
2013,07,26,15,12,23.50
2013,07,26,15,13,23.40
2013,07,26,15,14,23.30
2013,07,26,15,15,23.20
2013,07,26,15,16,23.20
2013,07,26,15,17,23.20
2013,07,26,15,18,23.30
2013,07,26,15,19,23.40
2013,07,26,15,20,23.40
2013,07,26,15,21,23.50
2013,07,26,15,22,23.50
2013,07,26,15,23,23.50
2013,07,26,15,24,23.50
2013,07,26,15,25,23.50
2013,07,26,15,26,23.50
2013,07,26,15,27,23.50
2013,07,26,15,28,23.50
2013,07,26,15,29,23.50
2013,07,26,15,30,23.50
2013,07,26,15,31,23.60
2013,07,26,15,32,23.60
2013,07,26,15,33,23.60
2013,07,26,15,34,23.70
2013,07,26,15,35,23.70
2013,07,26,15,36,23.80
2013,07,26,15,37,24.00
2013,07,26,15,38,24.10
2013,07,26,15,39,24.00
2013,07,26,15,40,23.90
2013,07,26,15,41,23.80
2013,07,26,15,42,23.80
2013,07,26,15,43,23.80
2013,07,26,15,44,23.80
2013,07,26,15,45,23.90
2013,07,26,15,46,23.90
2013,07,26,15,47,24.00
2013,07,26,15,48,24.00
2013,07,26,15,49,24.00
2013,07,26,15,50,24.00
2013,07,26,15,51,24.10
2013,07,26,15,52,24.20
2013,07,26,15,53,24.30
2013,07,26,15,54,24.40
2013,07,26,15,55,24.40
2013,07,26,15,56,24.50
2013,07,26,15,57,24.50
2013,07,26,15,58,24.60
2013,07,26,15,59,24.60
2013,07,26,16,00,24.60
2013,07,26,16,01,24.60
2013,07,26,16,02,24.50
2013,07,26,16,03,24.40
2013,07,26,16,04,24.40
2013,07,26,16,05,24.40
2013,07,26,16,06,24.40
2013,07,26,16,07,24.50
2013,07,26,16,08,24.50
2013,07,26,16,09,24.40
2013,07,26,16,10,24.40
2013,07,26,16,11,24.40
2013,07,26,16,12,24.50
2013,07,26,16,13,24.60
2013,07,26,16,14,24.50
2013,07,26,16,15,24.50
2013,07,26,16,16,24.50
2013,07,26,16,17,24.50
2013,07,26,16,18,24.40
2013,07,26,16,19,24.40
2013,07,26,16,20,24.30
2013,07,26,16,21,24.30
2013,07,26,16,22,24.30
2013,07,26,16,23,24.40
2013,07,26,16,24,24.30
2013,07,26,16,25,24.30
2013,07,26,16,26,24.40
2013,07,26,16,27,24.40
2013,07,26,16,28,24.50
2013,07,26,16,29,24.60
2013,07,26,16,30,24.70
2013,07,26,16,31,24.70
2013,07,26,16,32,24.60
2013,07,26,16,33,24.60
2013,07,26,16,34,24.60
2013,07,26,16,35,24.50
2013,07,26,16,36,24.30
2013,07,26,16,37,24.20
2013,07,26,16,38,24.10
2013,07,26,16,39,24.10
2013,07,26,16,40,24.20
2013,07,26,16,41,24.20
2013,07,26,16,42,24.20
2013,07,26,16,43,24.20
2013,07,26,16,44,24.20
2013,07,26,16,45,24.10
2013,07,26,16,46,24.10
2013,07,26,16,47,24.10
2013,07,26,16,48,24.10
2013,07,26,16,49,24.10
2013,07,26,16,50,24.10
2013,07,26,16,51,24.10
2013,07,26,16,52,24.20
2013,07,26,16,53,24.10
2013,07,26,16,54,24.20
2013,07,26,16,55,24.20
2013,07,26,16,56,24.30
2013,07,26,16,57,24.30
2013,07,26,16,58,24.30
2013,07,26,16,59,24.40
2013,07,26,17,00,24.40
2013,07,26,17,01,24.30
2013,07,26,17,02,24.40
2013,07,26,17,03,24.40
2013,07,26,17,04,24.40
2013,07,26,17,05,24.50
2013,07,26,17,06,24.50
2013,07,26,17,07,24.60
2013,07,26,17,08,24.70
2013,07,26,17,09,24.80
2013,07,26,17,10,24.80
2013,07,26,17,11,24.80
2013,07,26,17,12,24.80
2013,07,26,17,13,24.80
2013,07,26,17,14,24.80
2013,07,26,17,15,24.80
2013,07,26,17,16,24.80
2013,07,26,17,17,24.80
2013,07,26,17,18,24.90
2013,07,26,17,19,24.90